Weather History for K1A6 - May, 2013

Change the Weather History Date:

Saturday, May 25, 2013

  Actual Average (KLOZ) Record (KLOZ)
Temperature  
Mean Temperature 56 °F 67 °F  
Max Temperature 72 °F 78 °F 88 °F (1970)
Min Temperature 41 °F 56 °F 40 °F (2013)
Degree Days  
Heating Degree Days 9 2  
Month to date heating degree days 86  
Since 1 July heating degree days 4187  
Cooling Degree Days 0 4  
Month to date cooling degree days 61  
Year to date cooling degree days 87  
Growing Degree Days 6 (Base 50)    
Moisture  
Dew Point 43 °F    
Average Humidity 68    
Maximum Humidity 100    
Minimum Humidity 24    
Precipitation  
Precipitation 0.00 in 0.17 in 1.23 in (1958)
Month to date precipitation 4.15  
Year to date precipitation 19.50  
Sea Level Pressure  
Sea Level Pressure 30.31 in    
Wind  
Wind Speed 1 mph (NNE)    
Max Wind Speed 13 mph    
Max Gust Speed -    
Visibility 9 miles    
Events Fog    
T = Trace of Precipitation, MM = Missing Value Source: NWS Daily Summary

Daily Weather History Graph

Daily Weather History Graph

Search for Another Location

Airport or City:

Trip Planner

Search our weather history database for the weather conditions in past years. The results will help you decide how hot, cold, wet, or windy it might be!

Date:

Astronomy

May. 25, 2013 Rise Set
Actual Time 5:20 AM CDT 7:43 PM CDT
Civil Twilight 4:51 AM CDT 8:12 PM CDT
Nautical Twilight 4:14 AM CDT 8:49 PM CDT
Astronomical Twilight 3:34 AM CDT 9:29 PM CDT
Moon 8:30 PM CDT (5/25) 5:46 AM CDT (5/25)
Length of Visible Light 15h 21m
Length of Day
14h 22m
Full, 100% of the Moon is Illuminated
May 25
Full
May 31
Last Quarter
Jun 8
New
Jun 16
First Quarter
Jun 23
Full

Hourly Weather History & Observations

Time (CDT) Temp. Dew Point Humidity Pressure Visibility Wind Dir Wind Speed Gust Speed Precip Events Conditions
12:15 AM 45.5 °F 44.1 °F 95% 30.32 in 10.0 mi Calm Calm - N/A   Clear
12:35 AM 44.8 °F 43.3 °F 95% 30.32 in 10.0 mi Calm Calm - N/A   Clear
12:55 AM 43.9 °F 42.8 °F 96% 30.32 in 10.0 mi Calm Calm - N/A   Clear
1:15 AM 44.1 °F 43.0 °F 96% 30.31 in 10.0 mi Calm Calm - N/A   Clear
1:35 AM 43.3 °F 42.8 °F 98% 30.32 in 10.0 mi Calm Calm - N/A   Clear
1:55 AM 43.2 °F 42.3 °F 97% 30.32 in 10.0 mi Calm Calm - N/A   Clear
2:15 AM 42.8 °F 42.1 °F 97% 30.32 in 10.0 mi Calm Calm - N/A   Clear
2:35 AM 42.3 °F 41.9 °F 99% 30.31 in 10.0 mi Calm Calm - N/A   Clear
2:55 AM 42.1 °F 41.7 °F 99% 30.31 in 10.0 mi Calm Calm - N/A   Clear
3:15 AM 42.1 °F 41.0 °F 96% 30.32 in 10.0 mi Calm Calm - N/A   Clear
3:35 AM 41.4 °F 41.0 °F 99% 30.32 in 10.0 mi Calm Calm - N/A   Scattered Clouds
3:55 AM 41.5 °F 41.0 °F 98% 30.33 in 10.0 mi Calm Calm - N/A   Overcast
4:15 AM 41.7 °F 41.2 °F 98% 30.33 in 10.0 mi Calm Calm - N/A   Overcast
4:35 AM 41.9 °F 41.9 °F 100% 30.35 in 0.5 mi Calm Calm - N/A Fog Fog
4:55 AM 41.9 °F 41.9 °F 100% 30.36 in 0.5 mi Calm Calm - N/A Fog Fog
5:15 AM 41.7 °F 41.7 °F 100% 30.37 in 0.5 mi Calm Calm - N/A Fog Fog
5:35 AM 41.4 °F 41.4 °F 100% 30.38 in 0.2 mi Calm Calm - N/A Fog Fog
5:55 AM 41.4 °F 41.4 °F 100% 30.38 in 0.2 mi Calm Calm - N/A Fog Fog
6:15 AM 41.4 °F 41.4 °F 100% 30.39 in 0.2 mi Calm Calm - N/A Fog Fog
6:35 AM 42.1 °F 42.1 °F 100% 30.39 in 0.2 mi Calm Calm - N/A Fog Fog
6:55 AM 41.9 °F 41.9 °F 100% 30.39 in 0.2 mi Calm Calm - N/A Fog Fog
7:15 AM 42.3 °F 42.3 °F 100% 30.39 in 0.8 mi Calm Calm - N/A   Overcast
7:35 AM 42.8 °F 42.8 °F 100% 30.38 in 0.5 mi Calm Calm - N/A Fog Fog
7:55 AM 43.7 °F 43.3 °F 99% 30.38 in 2.0 mi Calm Calm - N/A   Overcast
8:15 AM 45.5 °F 44.1 °F 95% 30.38 in 10.0 mi Calm Calm - N/A   Scattered Clouds
8:35 AM 48.4 °F 44.8 °F 87% 30.38 in 10.0 mi Calm Calm - N/A   Clear
8:55 AM 50.9 °F 43.7 °F 76% 30.37 in 10.0 mi Calm Calm - N/A   Clear
9:15 AM 52.5 °F 44.2 °F 73% 30.38 in 10.0 mi Calm Calm - N/A   Clear
9:35 AM 56.7 °F 44.2 °F 63% 30.37 in 10.0 mi Calm Calm - N/A   Clear
9:55 AM 60.6 °F 42.1 °F 50% 30.36 in 10.0 mi Calm Calm - N/A   Clear
10:15 AM 60.6 °F 42.6 °F 52% 30.35 in 10.0 mi Calm Calm - N/A   Clear
10:35 AM 62.4 °F 41.4 °F 46% 30.35 in 10.0 mi Calm Calm - N/A   Clear
10:55 AM 64.0 °F 42.4 °F 45% 30.36 in 10.0 mi North 4.6 mph - N/A   Clear
11:15 AM 64.0 °F 33.8 °F 32% 30.35 in 10.0 mi Calm Calm - N/A   Clear
11:35 AM 66.6 °F 28.4 °F 24% 30.34 in 10.0 mi North 3.5 mph - N/A   Clear
11:55 AM 66.2 °F 36.0 °F 33% 30.33 in 10.0 mi South 3.5 mph - N/A   Clear
12:15 PM 65.3 °F 37.2 °F 35% 30.32 in 10.0 mi Calm Calm - N/A   Clear
12:35 PM 67.1 °F 38.1 °F 34% 30.32 in 10.0 mi ENE 3.5 mph - N/A   Clear
12:55 PM 67.1 °F 39.7 °F 37% 30.31 in 10.0 mi NNE 5.8 mph - N/A   Clear
1:15 PM 68.9 °F 39.9 °F 35% 30.30 in 10.0 mi North 5.8 mph - N/A   Clear
1:35 PM 69.8 °F 41.2 °F 35% 30.29 in 10.0 mi NNE 8.1 mph - N/A   Clear
1:55 PM 69.6 °F 38.7 °F 32% 30.29 in 10.0 mi North 10.4 mph - N/A   Clear
2:15 PM 70.7 °F 38.7 °F 31% 30.29 in 10.0 mi NE 5.8 mph - N/A   Clear
2:35 PM 70.9 °F 41.0 °F 34% 30.30 in 10.0 mi North 5.8 mph - N/A   Clear
2:55 PM 70.9 °F 41.0 °F 34% 30.29 in 10.0 mi NNE 9.2 mph - N/A   Clear
3:15 PM 71.1 °F 38.7 °F 31% 30.29 in 10.0 mi NNE 12.7 mph - N/A   Clear
3:35 PM 70.9 °F 39.0 °F 31% 30.29 in 10.0 mi North 6.9 mph - N/A   Clear
3:55 PM 71.2 °F 43.2 °F 36% 30.28 in 10.0 mi NNE 4.6 mph - N/A   Clear
4:15 PM 70.2 °F 44.1 °F 39% 30.28 in 10.0 mi NNE 8.1 mph - N/A   Clear
4:35 PM 70.2 °F 44.4 °F 40% 30.27 in 10.0 mi North 8.1 mph - N/A   Clear
4:55 PM 69.8 °F 45.1 °F 41% 30.27 in 10.0 mi North 6.9 mph - N/A   Clear
5:15 PM 69.8 °F 45.5 °F 42% 30.27 in 10.0 mi NNE 3.5 mph - N/A   Clear
5:35 PM 68.0 °F 44.8 °F 43% 30.27 in 10.0 mi NNE 5.8 mph - N/A   Mostly Cloudy
5:55 PM 68.4 °F 45.3 °F 44% 30.26 in 10.0 mi NNE 6.9 mph - N/A   Overcast
6:15 PM 67.6 °F 44.8 °F 44% 30.26 in 10.0 mi NE 5.8 mph - N/A   Overcast
6:35 PM 66.9 °F 45.5 °F 46% 30.26 in 10.0 mi NNE 3.5 mph - N/A   Overcast
6:55 PM 66.0 °F 45.7 °F 48% 30.26 in 10.0 mi NNE 3.5 mph - N/A   Overcast
7:15 PM 64.6 °F 46.6 °F 52% 30.26 in 10.0 mi Calm Calm - N/A   Overcast
7:35 PM 64.0 °F 46.9 °F 54% 30.26 in 10.0 mi Calm Calm - N/A   Overcast
7:55 PM 61.9 °F 49.1 °F 63% 30.24 in 10.0 mi Calm Calm - N/A   Mostly Cloudy
8:15 PM 60.6 °F 49.6 °F 67% 30.22 in 10.0 mi Calm Calm - N/A   Scattered Clouds
8:35 PM 59.2 °F 49.8 °F 71% 30.22 in 10.0 mi NW 3.5 mph - N/A   Clear
8:55 PM 58.1 °F 50.0 °F 74% 30.22 in 10.0 mi NW 3.5 mph - N/A   Scattered Clouds
9:15 PM 57.9 °F 48.7 °F 71% 30.24 in 10.0 mi Calm Calm - N/A   Mostly Cloudy
9:35 PM 57.4 °F 48.9 °F 73% 30.24 in 10.0 mi Calm Calm - N/A   Overcast
9:55 PM 57.6 °F 48.9 °F 73% 30.25 in 10.0 mi West 3.5 mph - N/A   Overcast
10:15 PM 57.2 °F 48.6 °F 73% 30.26 in 10.0 mi Calm Calm - N/A   Overcast
10:35 PM 57.6 °F 48.6 °F 72% 30.26 in 10.0 mi Calm Calm - N/A   Overcast
10:55 PM 57.2 °F 48.7 °F 73% 30.25 in 10.0 mi Calm Calm - N/A   Mostly Cloudy
11:15 PM 57.2 °F 48.7 °F 73% 30.26 in 10.0 mi Calm Calm - N/A   Overcast
11:35 PM 57.2 °F 48.4 °F 72% 30.26 in 10.0 mi Calm Calm - N/A   Overcast
11:55 PM 57.2 °F 49.1 °F 74% 30.27 in 10.0 mi Calm Calm - N/A   Overcast